Location: Newark
(34.9471°N, 136.1778°E)
Time: 22:23:38
(UTC+00:00)

METEOR M2 - Pass Details

Date: 29 February 2020
Orbit: 818 x 828 km, 98.5° (Epoch: 05 April)

Event Time Altitude Azimuth Distance (km) Brightness Sun altitude
Exits shadow 10:52:04 21° 177° (S) 1,774 ? -25.7°
Maximum altitude 10:55:43 71° 258° (WSW) 873 ? -26.4°
Drops below altitude 10° 11:01:06 10° 342° (NNW) 2,436 ? -27.5°
Sets 11:03:29 0° 345° (NNW) 3,373 ? -28.0°
